{"data":{"norad_id":63773,"intl_designator":"2025-089X","name":"STARLINK-33769","alt_names":[],"object_type":"PAYLOAD","status":"ACTIVE","operator":null,"country":"US","launch_date":"2025-04-29","launch_site_code":"AFETR","launch_vehicle":null,"mission":null,"orbit_class":"UNKNOWN","rcs_meters":null,"size_class":null,"mass_kg":null,"dimensions":null,"purposes":["comms"],"wikipedia_slug":null,"has_3d_model":false,"image_url":null,"decayed_at":null,"tle_current":{"epoch":"2026-05-24T22:47:26.998656Z","epoch_age_seconds":76090,"freshness":"FRESH","line1":"1 63773U 25089X   26144.94961804  .00021566  00000+0  79051-3 0  9992","line2":"2 63773  43.0018 334.2888 0001520 277.6550  82.4129 15.27597328 60618","mean_motion":15.27597328,"eccentricity":0.000152,"inclination_deg":43.0018,"raan_deg":334.2888,"arg_perigee_deg":277.655,"mean_anomaly_deg":82.4129,"bstar":0.00079051,"rev_number":6061,"period_min":94.265679417318,"perigee_km":481.95431786445,"apogee_km":484.04010266437,"semimajor_km":6861.1342102644,"source":"CELESTRAK","updated_at":"2026-05-25T13:38:20.130162Z"}}}